DW8209 Gubbio IT current weather conditions

sailwx.info

Wind from 271

Air temperature 4.4° C
Dewpoint 3.9° C

Last reported at 2014-Oct-26 00:46 UTC.
Time now 2014-Oct-26 02:00 UTC

Location: N 43°19' E 012°34'.
View on Google Maps.

See reports from other nearby stations

  
Tides and Currents Weather Stations Pressure Air Temp Water Temp Dewpoint Dewpoint Depression Visibility Wind Speed Wind Dir Waves Ship Positions
date/time (UTC)wind fromknots sea level pressurealtimeterstation pressurevisibilityair tempwater tempwave heightnotes
2014-Oct-26 00:46 271 4.4
2014-Oct-26 00:31 311 4.4
2014-Oct-26 00:01 219 0 gusting 1 4.4
2014-Oct-25 23:46 039 4.4
2014-Oct-25 23:16 342 0 gusting 2 4.4
2014-Oct-25 23:01 078 0 gusting 1 4.4
2014-Oct-25 22:46 094 0 gusting 3 4.4
2014-Oct-25 22:31 284 0 gusting 2 4.4
2014-Oct-25 22:16 297 5.0
2014-Oct-25 22:01 143 5.0
2014-Oct-25 21:46 278 5.0
2014-Oct-25 21:31 281 0 gusting 1 5.0
2014-Oct-25 21:16 297 5.6
2014-Oct-25 21:01 342 5.6
2014-Oct-25 20:46 277 0 gusting 2 5.6
2014-Oct-25 20:31 056 5.6
2014-Oct-25 20:16 149 5.6
2014-Oct-25 20:01 198 5.6
2014-Oct-25 19:46 068 6.1
2014-Oct-25 19:31 049 6.1
2014-Oct-25 19:16 180 6.7
2014-Oct-25 19:01 129 6.7
2014-Oct-25 18:45 056 6.7
2014-Oct-25 18:30 108 7.2
2014-Oct-25 18:15 204 7.2
2014-Oct-25 18:00 203 7.2
2014-Oct-25 17:45 212 7.8
2014-Oct-25 17:30 128 0 gusting 1 8.9
2014-Oct-25 17:15 193 9.4
2014-Oct-25 17:00 006 0 gusting 3 10.6
2014-Oct-25 16:45 354 2 gusting 4 11.1
2014-Oct-25 16:30 347 2 gusting 5 11.1
2014-Oct-25 16:15 335 2 gusting 6 11.7
2014-Oct-25 16:00 356 4 gusting 11 11.7
2014-Oct-25 15:45 347 4 gusting 9 12.2
2014-Oct-25 15:30 333 5 gusting 8 12.2
2014-Oct-25 15:15 318 4 gusting 10 12.2
2014-Oct-25 15:00 319 5 gusting 7 12.8
2014-Oct-25 14:45 333 4 13.3
2014-Oct-25 14:29 342 5 gusting 10 12.8
2014-Oct-25 14:14 019 6 gusting 10 12.8
2014-Oct-25 13:59 352 7 gusting 11 12.8
2014-Oct-25 13:44 319 6 gusting 11 12.8
2014-Oct-25 13:29 333 5 gusting 8 13.3
2014-Oct-25 13:14 018 6 gusting 10 12.8
2014-Oct-25 12:59 005 6 gusting 8 12.8
2014-Oct-25 12:44 349 5 gusting 10 12.8
2014-Oct-25 12:29 005 6 gusting 12 12.8
2014-Oct-25 12:14 323 7 gusting 11 13.3
2014-Oct-25 11:59 329 4 gusting 8 13.9
2014-Oct-25 11:44 012 6 gusting 9 13.3
2014-Oct-25 11:29 338 6 gusting 10 13.3
2014-Oct-25 11:14 329 4 gusting 10 13.3
2014-Oct-25 10:59 041 4 gusting 10 13.3
2014-Oct-25 10:44 032 6 gusting 8 13.3
2014-Oct-25 10:29 329 3 gusting 10 13.3
2014-Oct-25 10:14 016 5 gusting 8 12.8
2014-Oct-25 09:59 008 4 gusting 8 12.2
2014-Oct-25 09:44 331 5 gusting 10 12.2
2014-Oct-25 09:29 308 1 gusting 7 12.2
2014-Oct-25 09:14 333 5 gusting 12 12.2
2014-Oct-25 08:59 012 6 gusting 12 12.2
2014-Oct-25 08:43 345 6 gusting 13 12.2
2014-Oct-25 08:28 113 1 gusting 7 12.8
2014-Oct-25 08:13 025 4 gusting 12 12.8
2014-Oct-25 07:58 007 3 gusting 6 12.2
2014-Oct-25 07:43 023 0 gusting 6 12.2
2014-Oct-25 07:28 005 2 gusting 5 12.2
2014-Oct-25 07:13 335 11.7
2014-Oct-25 06:58 331 2 gusting 8 11.1
2014-Oct-25 06:43 279 2 gusting 9 11.1
2014-Oct-25 06:28 324 2 gusting 9 10.6
2014-Oct-25 06:13 277 3 10.6
2014-Oct-25 05:58
2014-Oct-25 05:43
2014-Oct-25 05:28
2014-Oct-25 05:13
2014-Oct-25 04:58
2014-Oct-25 04:43
2014-Oct-25 04:28
2014-Oct-25 04:13
2014-Oct-25 03:58
2014-Oct-25 03:42
2014-Oct-25 03:27
2014-Oct-25 03:12
2014-Oct-25 02:57
2014-Oct-25 02:42
2014-Oct-25 02:27
2014-Oct-25 02:12 279 3 gusting 7 9.4
2014-Oct-25 01:57 243 0 gusting 7 9.4
2014-Oct-25 01:42 317 0 gusting 4 8.9
2014-Oct-25 01:27 269 1 gusting 3 9.4
2014-Oct-25 01:12 070 0 gusting 4 9.4
2014-Oct-25 00:57 303 9.4
2014-Oct-25 00:42 083 9.4
2014-Oct-25 00:27 278 1 gusting 2 10.0
2014-Oct-25 00:12 075 0 gusting 6 10.0
2014-Oct-24 23:57 339 4 gusting 8 10.0
2014-Oct-24 23:42 318 5 gusting 8 10.0
2014-Oct-24 23:27 291 2 gusting 6 10.6
2014-Oct-24 23:11 307 4 gusting 7 10.6
2014-Oct-24 22:56 349 5 gusting 7 10.6
2014-Oct-24 22:41 020 5 gusting 10 11.1
2014-Oct-24 22:26 095 1 gusting 13 11.1
2014-Oct-24 22:11 015 2 gusting 12 11.1
2014-Oct-24 21:56 351 5 gusting 8 11.1
2014-Oct-24 21:41 320 7 gusting 11 11.7
2014-Oct-24 21:26 326 1 gusting 6 11.7
2014-Oct-24 21:11 335 3 gusting 6 11.7
2014-Oct-24 20:56 336 5 gusting 9 11.7
2014-Oct-24 20:41 342 3 gusting 7 11.1
2014-Oct-24 20:26 313 1 gusting 6 11.1
2014-Oct-24 20:11 354 1 gusting 3 11.1
2014-Oct-24 19:56 020 1 gusting 6 11.7
2014-Oct-24 19:41 045 4 gusting 6 11.7
2014-Oct-24 19:26 059 3 gusting 8 11.7
2014-Oct-24 19:11 049 2 gusting 6 11.7
2014-Oct-24 18:56 044 4 gusting 6 11.7
2014-Oct-24 18:41 027 5 gusting 6 11.7
2014-Oct-24 18:26 027 5 gusting 6 11.7
2014-Oct-24 18:11 039 4 gusting 6 12.2
2014-Oct-24 17:56 049 5 gusting 8 12.2
2014-Oct-24 17:41 051 6 gusting 7 12.2
2014-Oct-24 17:26 064 2 gusting 7 12.2
2014-Oct-24 17:11 050 4 gusting 7 12.2
2014-Oct-24 16:55 259 11.7
2014-Oct-24 16:40 142 12.2
2014-Oct-24 16:25 214 12.8
2014-Oct-24 16:10 017 2 gusting 8 13.9
2014-Oct-24 15:55 021 6 gusting 12 13.9
2014-Oct-24 15:40 349 3 gusting 8 13.9
2014-Oct-24 15:25 061 4 gusting 13 13.9
2014-Oct-24 15:10 071 6 gusting 12 13.9
2014-Oct-24 14:55 049 6 gusting 14 14.4
2014-Oct-24 14:10 322 8 gusting 16 15.0
2014-Oct-24 13:55 028 6 gusting 11 14.4
2014-Oct-24 13:40 045 5 gusting 7 14.4
2014-Oct-24 13:25 030 5 gusting 8 14.4
2014-Oct-24 13:10 034 7 gusting 11 14.4
2014-Oct-24 12:55 067 8 gusting 11 14.4
2014-Oct-24 12:40 034 6 gusting 11 15.0
2014-Oct-24 12:25 061 0 gusting 6 15.0
2014-Oct-24 12:10 025 7 gusting 14 15.0
2014-Oct-24 11:55 044 4 gusting 13 15.0
2014-Oct-24 11:40 021 6 gusting 13 15.0
2014-Oct-24 11:25 291 8 gusting 12 15.0
2014-Oct-24 11:10 093 6 gusting 14 15.0
2014-Oct-24 10:54 079 11 gusting 20 13.9
2014-Oct-24 10:39 023 9 gusting 19 13.3
2014-Oct-24 10:24 030 8 gusting 14 13.9
2014-Oct-24 10:09 335 5 gusting 18 13.3
2014-Oct-24 09:54 032 7 gusting 18 12.8
2014-Oct-24 09:39 044 9 gusting 16 12.8
2014-Oct-24 09:24 019 8 gusting 17 13.3
2014-Oct-24 09:09 019 8 gusting 16 13.3
2014-Oct-24 08:54 028 10 gusting 19 12.8
2014-Oct-24 08:39 005 8 gusting 14 12.2
2014-Oct-24 08:24 036 7 gusting 16 12.8
2014-Oct-24 08:09 323 6 12.8
2014-Oct-24 07:54 354 7 gusting 13 12.2
2014-Oct-24 07:39 349 6 gusting 14 12.2
2014-Oct-24 07:24 344 6 gusting 12 12.8
2014-Oct-24 07:09 342 8 gusting 14 12.8
2014-Oct-24 06:54 007 10 gusting 17 12.8
2014-Oct-24 06:39 316 6 gusting 11 12.2
2014-Oct-24 06:24
2014-Oct-24 06:09
2014-Oct-24 05:54
2014-Oct-24 05:39
2014-Oct-24 05:24
2014-Oct-24 05:08
2014-Oct-24 04:53
2014-Oct-24 04:38
2014-Oct-24 04:23
2014-Oct-24 04:08
2014-Oct-24 03:53
2014-Oct-24 03:38
2014-Oct-24 03:23
2014-Oct-24 03:08
2014-Oct-24 02:53
2014-Oct-24 02:38
2014-Oct-24 02:23
2014-Oct-24 02:08